星链-31927 (STARLINK-31927 )

导读

STARLINK-31927是美国于2024年5月23日发射的星链卫星,归属SpaceX星链互联网星座项目。星链计划旨在构建全球卫星互联网,通过数千低轨卫星组网为全球提供高速宽带服务,该卫星的发射延续了星链星座扩容部署节奏,补充了星座覆盖能力。

基本信息
目录编号:
59837
目录名称:
STARLINK-31927
国际标识:
2024-097C
轨道中心:
EARTH
卫星名称:
星链-31927
卫星全名:
星链-31927 (STARLINK-31927 )
卫星状态:
在轨 (已飞行756 天)
发射日期:
2024-05-23 UTC
国别 :
美国 (US)
星等 :
--
轨道信息
数据来源 国际轨道数据
星历时间: 2026-06-16T12:59:00+0800
1天前
查看轨道信息
半长轴: 6861.193km
偏心率: 0.0001976
轨道倾角: 43.009°
近地点辐角 266.052°
升交点赤经 78.001°
平近点角 94.011°
近地点: 481.7km
远地点: 484.412km
周期: 94.267分钟
每日圈数: 15.275777
详细信息
固有亮度:
5
最大亮度:
1.5
卫星平台:
Starlink v2.0 mini
覆盖范围:
全球
运营商:
太空探索技术公司
运营商所在国:
美国
制造商(研发单位):
太空探索技术公司
制造商所在国:
美国
使用方式:
暂无
卫星简介
星链(Starlink)计划是由太空探索技术公司(SpaceX)提出的一个巨型低轨卫星互联网星座项目,计划在2019年至2024年间在太空搭建由约1.2万颗卫星组成的“星链”网络,其中1584颗将部署在地球上空550千米处的近地轨道,并从2020年开始工作。该卫星仍在工作。
2D轨道图
3D轨道图
轨道高度分析图
轨道倾角分析图
轨道综合分析图
查看轨道综合分析图